Location: Frankfurt am Main
(50.1109°N, 8.6821°E)
Time: 06:57:41
(UTC+01:00)

ISS - Pass Details

Date: 30 October 2021
Orbit: 417 x 422 km, 51.6° (Epoch: 04 December)

Event Time Altitude Azimuth Distance (km) Brightness Sun altitude
Exits shadow 07:12:13 15° 280° (W) 1,225 -2.1 -10.1°
Maximum altitude 07:14:53 65° 1° (N) 466 -3.6 -9.7°
Drops below altitude 10° 07:18:13 10° 84° (E) 1,499 0.5 -9.1°
Sets 07:20:20 0° 87° (E) 2,362 1.9 -8.8°
